TimeCST,TemperatureF,Dew PointF,Humidity,Sea Level PressureIn,VisibilityMPH,Wind Direction,Wind SpeedMPH,Gust SpeedMPH,PrecipitationIn,Events,Conditions,WindDirDegrees,DateUTC
12:02 AM,-0.4,-7.6,72,30.24,2.5,South,4.6,-,0.01,Snow,Light Snow,170,2013-12-12 06:02:00
12:06 AM,-0.4,-5.8,78,30.24,3.0,South,4.6,-,0.01,Snow,Light Snow,170,2013-12-12 06:06:00
12:53 AM,-0.0,-6.0,76,30.33,10.0,South,5.8,-,0.01,,Overcast,180,2013-12-12 06:53:00
1:53 AM,-2.9,-8.0,79,30.31,10.0,SSE,3.5,-,N/A,,Clear,160,2013-12-12 07:53:00
2:53 AM,-5.1,-9.0,83,30.32,10.0,Calm,Calm,-,N/A,,Clear,0,2013-12-12 08:53:00
3:53 AM,-7.1,-11.0,83,30.32,10.0,Calm,Calm,-,N/A,,Clear,0,2013-12-12 09:53:00
4:53 AM,-5.1,-9.0,83,30.32,10.0,Calm,Calm,-,N/A,,Clear,0,2013-12-12 10:53:00
5:53 AM,-4.0,-8.0,83,30.31,10.0,Calm,Calm,-,N/A,,Clear,0,2013-12-12 11:53:00
6:53 AM,-2.9,-7.1,82,30.34,10.0,Calm,Calm,-,N/A,,Clear,0,2013-12-12 12:53:00
7:53 AM,-2.0,-7.1,79,30.35,10.0,Calm,Calm,-,N/A,,Clear,0,2013-12-12 13:53:00
8:53 AM,-2.0,-6.0,83,30.33,10.0,Calm,Calm,-,N/A,,Clear,0,2013-12-12 14:53:00
9:53 AM,1.0,-4.0,79,30.36,10.0,SSW,6.9,-,N/A,,Clear,200,2013-12-12 15:53:00
10:53 AM,6.1,-0.0,76,30.35,10.0,Calm,Calm,-,N/A,,Clear,0,2013-12-12 16:53:00
11:53 AM,8.1,1.0,73,30.32,10.0,SSW,5.8,-,N/A,,Mostly Cloudy,200,2013-12-12 17:53:00
12:53 PM,12.0,3.0,67,30.29,10.0,SW,6.9,-,N/A,,Overcast,220,2013-12-12 18:53:00
1:53 PM,14.0,5.0,67,30.27,10.0,WSW,4.6,-,N/A,,Overcast,240,2013-12-12 19:53:00
2:53 PM,15.1,5.0,64,30.27,10.0,Calm,Calm,-,N/A,,Overcast,0,2013-12-12 20:53:00
3:53 PM,15.1,5.0,64,30.27,10.0,Calm,Calm,-,N/A,,Overcast,0,2013-12-12 21:53:00
4:53 PM,15.1,7.0,70,30.26,10.0,SSW,6.9,-,N/A,,Overcast,200,2013-12-12 22:53:00
5:53 PM,15.1,7.0,70,30.24,10.0,SSW,3.5,-,N/A,,Overcast,210,2013-12-12 23:53:00
6:53 PM,12.9,8.1,81,30.24,10.0,Calm,Calm,-,N/A,,Overcast,0,2013-12-13 00:53:00
7:53 PM,12.9,8.1,81,30.22,10.0,Calm,Calm,-,N/A,,Overcast,0,2013-12-13 01:53:00
8:05 PM,14.0,8.6,79,30.12,10.0,Calm,Calm,-,N/A,,Overcast,0,2013-12-13 02:05:00
8:53 PM,15.1,9.0,77,30.22,10.0,Calm,Calm,-,N/A,,Overcast,0,2013-12-13 02:53:00
9:53 PM,15.1,9.0,77,30.22,10.0,Calm,Calm,-,N/A,,Overcast,0,2013-12-13 03:53:00
10:53 PM,15.1,9.0,77,30.22,10.0,Calm,Calm,-,N/A,,Overcast,0,2013-12-13 04:53:00
11:53 PM,15.1,8.1,74,30.22,10.0,NNE,4.6,-,N/A,,Overcast,30,2013-12-13 05:53:00